This is the latest recevied weather packets stored in our database for station/object AF9W-5. If no packets are shown the sender has not sent any weather packets the latest 10 day(s).
| Time | Temp. | Humidity | Pressure | Rain* | Wind** | Luminosity | Snow |
|---|---|---|---|---|---|---|---|
| 1777661963 | 26.67° C | 29% | 1012.6 hPa | 0 mm | - | 852 W/m² | - |
| 1777661660 | 26.67° C | 28% | 1012.6 hPa | 0 mm | - | 851 W/m² | - |
| 1777661355 | 25° C | 29% | 1012.8 hPa | 0 mm | - | 849 W/m² | - |
| 1777661052 | 25.56° C | 29% | 1013 hPa | 0 mm | - | 848 W/m² | - |
| 1777660747 | 25° C | 29% | 1012.9 hPa | 0 mm | - | 845 W/m² | - |
| 1777660445 | 24.44° C | 30% | 1012.8 hPa | 0 mm | - | 840 W/m² | - |
| 1777660141 | 23.89° C | 30% | 1012.8 hPa | 0 mm | - | 837 W/m² | - |
| 1777659838 | 24.44° C | 30% | 1012.9 hPa | 0 mm | - | 833 W/m² | - |
| 1777659534 | 25° C | 31% | 1013.1 hPa | 0 mm | - | 829 W/m² | - |
| 1777659232 | 25° C | 30% | 1013.4 hPa | 0 mm | - | 823 W/m² | - |
| 1777658929 | 23.33° C | 33% | 1013.2 hPa | 0 mm | - | 816 W/m² | - |
| 1777658625 | 24.44° C | 31% | 1013.3 hPa | 0 mm | - | 810 W/m² | - |
| 1777658322 | 24.44° C | 32% | 1013.4 hPa | 0 mm | - | 802 W/m² | - |
| 1777658019 | 22.78° C | 32% | 1013.5 hPa | 0 mm | - | 797 W/m² | - |
| 1777657716 | 23.33° C | 32% | 1013.5 hPa | 0 mm | - | 788 W/m² | - |
| 1777657413 | 23.89° C | 32% | 1013.4 hPa | 0 mm | - | 783 W/m² | - |
| 1777657111 | 23.89° C | 32% | 1013.6 hPa | 0 mm | - | 773 W/m² | - |
| 1777656808 | 24.44° C | 33% | 1013.6 hPa | 0 mm | - | 762 W/m² | - |
| 1777656503 | 25° C | 32% | 1013.3 hPa | 0 mm | - | 752 W/m² | - |
| 1777656199 | 23.33° C | 33% | 1013.6 hPa | 0 mm | - | 744 W/m² | - |
| 1777655895 | 22.22° C | 36% | 1013.4 hPa | 0 mm | - | 736 W/m² | - |
| 1777655600 | 23.33° C | 35% | 1013.6 hPa | 0 mm | - | 725 W/m² | - |
| 1777655288 | 23.33° C | 34% | 1013.3 hPa | 0 mm | - | 714 W/m² | - |
| 1777654986 | 22.78° C | 34% | 1013.2 hPa | 0 mm | - | 702 W/m² | - |
| 1777654683 | 23.33° C | 33% | 1013.5 hPa | 0 mm | - | 689 W/m² | - |
* Rain latest hour (hover to see other rain measurements)
** Current wind speed in m/s (hover to see current wind gust speed)